EHI
0 0 0 0 0 0 0 0 0 0 0 0 0 0 0 0 0 0 0 0 0 0 0 0 0 0 0 0 0 0 0 0 0 0 0 0 0 0
0 0 0 0 0 0 0 0 0 0 0 0 0 0 0 0 0 0 0 0 0 0 0 0 0 0 0 0 0 0 0 0 0 0 0 0 0 0
0 0 0 0 0 0 0 0 0 0 0 0 0 0 0 0 0 0 0 0 0 0 0 0 0 0 0 0 0 0 0 0 0 0 0 0 0 0
0 0 0 0 0 0 0 0 0 0 0 0 0 1 1 0 0 0 0 0 0 0 0 0 0 0 0 0 0 0 0 0 0 0 0 0 0 0
0 0 0 0 0 0 0 0 0 0 0 0 0 1 1 0 0 0 0 0 0 0 0 0 0 0 0 0 0 0 0 0 0 0 0 0 0 0
0 0 0 0 0 0 0 0 0 0 0 0 0 1 1 0 0 0 0 0 0 0 0 0 0 0 0 0 0 0 0 0 0 0 0 0 0 0
1 0 0 0 0 0 0 0 0 0 1 1 1 1 0 0 0 0 0 0 0 1 1 1 0 0 0 0 0 0 0 0 0 0 0 0 0 0
2 1 0 0 0 0 0 0 0 0 1 2 2 2 1 0 0 0 1 0 0 2 3 2 1 1 0 0 0 0 0 0 0 0 0 0 0 0
1 0 0 0 0 0 0 0 0 0 1 2 2 2 1 1 0 0 0 0 0 1 2 2 2 1 0 0 0 0 0 0 0 0 0 0 0 0
0 0 0 0 0 0 0 0 1 0 0 1 1 1 0 0 0 0 0 0 0 0 1 1 1 1 0 0 0 0 0 0 0 0 0 0 0 0
0 0 0 0 0 0 0 0 0 0 0 0 0 0 0 0 0 0 0 0 0 0 0 0 0 0 0 0 0 0 0 0 0 0 0 0 0 0
1 0 0 0 0 0 0 0 0 0 0 0 0 0 0 0 0 0 0 0 0 0 0 1 0 0 0 0 0 0 0 0 0 0 0 0 0 0
1 0 0 0 0 0 0 0 0 0 0 0 0 0 0 0 0 0 0 0 0 0 0 0 0 0 0 0 0 0 0 0 0 0 0 0 0 0
1 0 0 0 0 0 0 0 0 0 0 0 0 0 0 0 0 0 0 0 0 0 0 0 0 0 0 0 0 0 0 0 0 0 0 0 0 0
0 0 0 0 0 0 0 0 0 0 0 0 0 0 0 0 0 0 0 0 0 0 0 0 0 0 0 0 0 0 0 0 0 0 0 0 0 0
0 0 0 0 0 0 0 0 0 0 0 0 0 0 0 0 0 0 0 0 0 0 0 0 0 0 0 0 0 0 0 0 0 0 0 0 0 0
0 0 0 0 0 0 0 0 0 0 0 0 0 0 0 0 0 0 0 0 0 0 0 0 0 0 0 0 0 0 0 0 0 0 0 0 0 0
0 0 0 0 0 0 0 0 0 0 0 0 0 0 0 0 0 0 0 0 0 0 0 0 0 0 0 0 0 0 0 0 0 0 0 0 0 0
0 0 0 0 0 0 0 0 0 0 0 0 0 0 0 0 0 0 0 0 0 0 0 0 0 0 0 0 0 0 0 0 0 0 0 0 0 0
0 0 0 0 0 0 0 0 0 0 0 0 0 0 0 0 0 0 0 0 0 0 0 0 0 0 0 0 0 0 0 0 0 0 0 0 0 0
0 0 0 0 0 0 0 0 0 0 0 0 0 0 0 0 0 0 0 0 0 0 0 0 0 0 0 0 0 0 0 0 0 0 0 0 0 0
0 0 0 0 0 0 0 0 0 0 0 0 0 0 0 0 0 0 0 0 0 0 0 0 0 0 0 0 0 0 0 0 0 0 0 0 0 0
0 0 0 0 0 0 0 0 0 0 0 0 0 0 0 0 0 0 0 0 0 0 0 0 0 0 0 0 0 0 0 0 0 0 0 0 0 0
Wind_Speed
4 5 5 2 3 3 3 4 5 5 3 4 4 3 3 3 3 5 5 7 8 8 9 9 10 10 10 10 10 10 9 10 10 10 10 11 12 13
3 2 4 4 3 3 4 4 4 5 5 1 3 3 2 4 5 6 7 6 10 11 11 11 11 12 12 12 12 12 12 12 12 12 12 12 12 13
5 5 5 5 4 4 4 4 4 5 5 5 3 3 4 7 5 6 7 8 9 14 13 12 12 13 13 14 14 14 14 14 14 14 14 14 14 14
7 6 6 5 6 6 5 6 5 4 6 7 5 5 6 7 7 7 8 8 8 8 13 12 13 14 14 14 15 15 15 15 15 15 15 15 16 16
7 7 7 7 7 6 6 6 5 6 6 7 7 5 5 5 6 8 9 7 9 7 11 14 15 15 15 15 15 15 16 16 16 16 16 16 16 17
6 5 5 5 5 5 5 5 6 6 6 7 7 6 6 6 6 7 7 6 7 9 8 8 11 15 16 16 16 16 16 16 16 16 16 17 17 17
4 3 1 2 4 3 3 3 4 5 6 6 7 7 6 5 6 6 8 8 8 9 9 9 8 9 10 14 17 18 17 16 16 16 16 17 17 17
1 1 1 3 3 2 3 4 5 5 6 6 6 6 6 6 6 7 8 9 9 6 7 9 9 10 10 11 10 10 13 14 15 16 16 17 17 17
2 1 1 3 2 1 0 1 0 1 3 5 7 6 6 6 7 9 9 10 11 10 10 12 11 11 11 11 9 9 11 13 14 15 16 17 17 17
4 3 3 3 4 4 2 1 1 1 2 3 5 6 6 7 7 9 11 12 12 11 10 12 11 11 11 10 9 10 12 14 16 16 17 17 17 17
4 4 3 3 6 6 3 3 3 3 3 3 4 6 7 7 7 8 9 10 11 10 9 11 11 12 11 11 11 11 12 14 15 16 17 17 17 17
3 4 8 7 7 7 5 5 5 5 7 6 5 7 8 7 8 7 9 10 11 11 8 8 11 11 12 10 9 9 9 12 15 17 18 19 18 14
2 2 6 7 5 5 6 5 5 8 9 8 8 7 6 6 6 6 6 8 10 11 9 10 11 12 13 13 12 11 12 12 12 12 14 17 18 16
3 4 5 4 4 5 4 4 6 9 8 7 7 7 7 6 6 7 8 9 10 12 12 12 11 11 13 14 13 12 12 12 12 13 13 14 15 19
4 4 2 3 6 5 4 5 8 7 7 7 8 7 7 8 8 8 9 9 11 12 12 11 11 11 12 13 14 13 14 13 13 13 13 13 13 12
2 2 7 8 7 5 5 4 5 5 7 8 8 8 8 8 8 8 9 9 10 10 10 11 11 13 12 14 13 14 14 13 12 13 13 13 13 13
8 6 4 4 5 5 5 5 6 6 6 7 7 8 8 8 8 8 8 9 10 11 10 9 10 11 13 13 14 14 14 13 13 12 12 14 14 14
9 5 5 6 6 7 7 7 6 7 7 8 8 8 9 9 9 9 9 10 10 11 11 11 11 11 12 12 11 14 12 12 12 13 14 15 15 14
6 5 5 6 7 7 7 7 8 8 8 8 8 8 8 9 9 9 9 9 10 11 11 11 11 11 12 13 12 10 13 13 13 13 13 13 15 14
5 6 6 6 7 7 7 8 8 8 8 8 9 9 9 9 10 10 10 11 11 11 12 11 10 10 11 13 14 15 15 15 13 13 13 13 14 16
6 6 6 7 7 7 7 8 8 9 9 9 9 9 9 10 10 10 10 12 12 11 12 12 11 14 13 11 12 13 14 14 15 14 15 14 15 14
6 6 6 7 7 7 7 8 8 9 9 9 9 9 9 10 11 12 11 11 10 11 13 12 13 12 11 12 13 15 16 16 15 16 18 17 13 12
6 7 7 7 7 7 7 9 10 9 9 9 9 10 10 10 10 10 11 11 11 12 12 12 11 11 11 12 13 13 17 17 13 13 13 13 16 20
Wind_Direction
208 201 236 215 237 255 265 276 284 279 242 174 216 174 221 236 162 241 246 190 208 229 237 241 244 245 248 249 250 251 252 252 252 253 252 252 252 253
245 250 252 246 232 242 251 254 266 280 288 266 221 230 275 278 190 244 256 189 216 227 234 239 243 245 246 247 248 248 249 249 249 249 249 249 249 250
221 222 228 261 255 248 241 246 248 257 267 271 249 229 236 267 259 258 257 249 236 210 221 233 241 245 246 247 246 246 246 247 247 248 248 247 247 248
225 227 232 226 229 254 255 251 253 260 264 272 274 254 232 244 255 263 265 257 266 211 209 228 240 244 247 248 248 247 246 246 247 247 248 247 247 247
230 230 234 237 236 242 246 254 254 247 250 265 267 272 265 257 260 258 261 264 269 249 213 223 233 241 246 247 247 247 247 247 247 247 248 248 248 248
236 238 240 241 245 250 248 255 266 269 260 263 270 269 263 261 262 269 270 257 267 280 276 261 241 232 238 242 243 244 244 245 246 247 247 248 248 248
222 225 233 51 28 343 307 293 282 273 273 273 276 282 285 297 290 296 292 294 282 278 280 276 268 260 249 240 238 241 241 242 244 246 247 247 247 246
166 137 111 85 70 59 19 5 344 301 294 291 286 293 302 306 307 299 298 294 291 296 300 289 288 284 280 273 265 241 236 242 246 249 250 250 249 248
96 90 77 63 42 32 115 207 9 9 322 301 300 311 313 319 315 299 294 293 292 298 296 285 282 279 278 277 269 254 248 248 251 254 255 254 253 252
80 81 77 51 31 357 335 338 307 293 289 290 311 307 311 318 305 293 291 282 273 266 264 275 282 282 284 286 280 262 255 255 256 257 258 258 256 255
78 67 60 67 35 355 327 322 309 296 211 216 265 280 287 282 286 290 287 285 286 287 285 284 289 292 291 286 278 256 248 252 256 257 257 257 256 258
97 97 68 46 33 359 332 324 315 322 319 304 275 260 263 258 235 257 283 289 292 293 300 302 297 299 292 285 287 293 282 267 255 251 250 250 251 258
37 45 70 54 25 354 322 327 338 315 296 288 284 283 280 279 273 271 279 286 291 290 302 307 299 295 288 290 292 291 290 290 285 275 257 248 243 243
17 24 53 34 343 314 316 346 312 291 287 295 297 299 302 304 308 307 299 290 283 285 290 290 286 288 289 289 290 290 289 289 288 286 284 276 254 239
31 56 3 284 284 262 216 261 281 288 307 307 307 311 316 318 311 300 290 283 277 274 275 276 279 283 282 283 287 288 288 286 282 280 279 278 278 273
348 224 218 232 252 283 288 266 291 321 320 311 312 313 311 307 303 304 304 305 299 295 291 290 284 282 280 281 283 285 283 282 281 280 282 281 278 273
325 303 312 329 325 332 331 333 326 322 316 316 312 310 307 305 303 304 302 300 297 298 300 297 291 287 282 282 282 281 283 283 283 286 284 282 278 275
305 323 343 341 337 336 331 329 327 327 325 318 313 311 310 309 309 310 306 302 301 300 300 302 303 300 293 283 271 283 287 290 293 292 288 283 282 279
306 354 351 347 340 335 332 332 331 331 324 316 315 315 313 309 306 304 303 302 301 301 301 302 300 298 296 295 294 285 295 296 293 289 285 283 283 283
358 358 351 346 339 335 334 331 327 323 321 320 317 315 313 312 311 310 309 308 306 304 300 298 296 297 296 296 296 294 285 284 287 288 289 288 283 279
359 355 348 342 337 334 331 326 322 320 321 318 314 315 314 312 310 309 307 305 300 297 297 297 299 299 292 287 284 285 290 284 277 278 285 287 288 286
354 348 343 335 331 330 326 324 320 318 319 317 318 317 315 311 308 305 303 302 300 299 299 298 301 299 296 293 292 294 297 298 291 273 260 261 275 282
350 342 335 334 336 334 331 326 321 320 322 321 319 317 314 310 307 304 302 300 299 299 300 300 302 300 296 292 293 294 297 300 300 302 296 282 262 258